Other Public Products
Issued by NWS Charleston, SC

Current Version | Previous Version | Text Only | Print | Product List | Glossary Off
Versions: 1 2 3 4 5 6 7 8 9 10 11 12 13 14 15 16 17 18 19 20 21 22 23 24 25 26 27 28 29 30 31 32 33 34 35 36 37 38 39 40 41 42 43 44 45 46 47 48 49 50
130 FPUS82 KCHS 232027 OPUCHS TEST...KCHS/KSAV Gateway Observations...TEST National Weather Service Charleston SC 300 PM EST FRI FEB 23 2018 NOTE: "fair" indicates few or no clouds below 12,000 feet with no significant weather and/or obstructions to visibility. SCZ050-WAZ558-NCZ071-TXZ119-213-PAZ071-DCZ001-FLZ074-172-MI076- NYZ176-178-MAZ016-IL014-TNZ027-NJZ106-GAZ044-MD014-232100- ...Gateway Observations for Charleston International... CITY SKY/WX TMP DP RH WIND PRES REMARKS Chas Airport FAIR 81 60 48 S10 30.35F Seattle CLOUDY 33 21 61 S6 30.40S WCI 28 Charlotte PTSUNNY 78 57 48 S13 30.34F Dallas DFW CLOUDY 49 46 90 E3 30.09F FOG Dallas Love CLOUDY 50 48 93 VRB5 30.10F Philladelphia DRIZZLE 42 41 96 NE6 30.41F FOG Wash National CLOUDY 46 43 89 S7 30.41F Baltimore CLOUDY 44 42 93 S6 30.39F Miami PTSUNNY 78 66 66 E20 30.26F Detroit CLOUDY 49 46 90 SW13 30.10R Newark DRIZZLE 40 38 93 E5 30.44F FOG WCI 37 Laguardia LGT RAIN 38 35 89 NE12 30.38F VSB 1/2 WCI 30 J F K DRIZZLE 39 39 100 E8 30.46F FOG WCI 33 Boston Logan LGT RAIN 38 33 82 E13 30.49F WCI 30 Ft. Lauderdale FAIR 80 68 66 E17 30.26F Chicago O`Hare CLOUDY 39 35 86 W10 30.17S WCI 32 Chicago Midway CLOUDY 41 37 86 W13 30.18S Houston Bush MOSUNNY 78 69 73 SE17 30.09F Houston Hobby PTSUNNY 78 69 73 S16G23 30.10F Nashville PTSUNNY 80 57 45 S15 30.23F Atlanta FAIR 76 61 59 S10 30.32F $$ GAZ044-118-TXZ119-213-NCZ071-DCZ001-MDZ014-506-PAZ021-071-NJZ106- NYZ176-178-MAZ106-OHZ011-021-055-MIZ076-KYZ091-ILZ014-INZ047- MNZ060-ONZ431-232100- ...Gateway Observations for Savannah International... CITY SKY/WX TMP DP RH WIND PRES REMARKS Savannah Arpt FAIR 82 60 47 SE10 30.33F Atlanta FAIR 76 61 59 S10 30.32F Charlotte PTSUNNY 78 57 48 S13 30.34F Dallas DFW CLOUDY 49 46 90 E3 30.09F FOG Houston Bush MOSUNNY 78 69 73 SE17 30.09F Wash National CLOUDY 46 43 89 S7 30.41F Wash Dulles CLOUDY 44 42 93 S8 30.38F FOG Baltimore CLOUDY 44 42 93 S6 30.39F Philadelphia DRIZZLE 42 41 96 NE6 30.41F FOG Newark DRIZZLE 40 38 93 E5 30.44F FOG WCI 37 Laguardia LGT RAIN 38 35 89 NE12 30.38F VSB 1/2 WCI 30 J F K DRIZZLE 39 39 100 E8 30.46F FOG WCI 33 Boston LGT RAIN 38 33 82 E13 30.49F WCI 30 Pittsburg LGT RAIN 63 57 81 SW20G31 30.16S Akron LGT RAIN 60 56 86 W15G21 30.15R Cleveland CLOUDY 61 56 83 SW16G26 30.13S Cincinnati CLOUDY 63 61 93 SW9 30.21S Columbus CLOUDY 62 62 99 SW7 30.18S Detroit CLOUDY 49 46 90 SW13 30.10R Chicago O`Hare CLOUDY 39 35 86 W10 30.17S WCI 32 Minneapolis FAIR 32 22 66 W9 30.19S WCI 24 Indianapolis CLOUDY 54 49 83 W9 30.21F Toronto Canada DRIZZLE 39 37 93 SE5 30.01F FOG WCI 36 $$

USA.gov is the U.S. government's official web portal to all federal, state and local government web resources and services.